Location: ????
(30.1475°N, 31.1342°E)
Time: 06:32:00
(UTC+00:00)

Meteor 1-14 Rocket - Pass Details

Date: 28 March 2023
Orbit: 834 x 918 km, 81.3° (Epoch: 03 June)

Event Time Altitude Azimuth Distance (km) Brightness Sun altitude
Rises 02:12:02 0° 350° (N) 3,386 7.4 -21.7°
Reaches altitude 10° 02:14:26 10° 349° (NNW) 2,453 6.7 -21.2°
Maximum altitude 02:19:57 75° 265° (W) 874 4.1 -20.0°
Drops below altitude 10° 02:25:33 10° 180° (S) 2,477 6.5 -18.9°
Sets 02:27:59 0° 178° (S) 3,422 7.2 -18.4°
